| time (UTC) | temp F | wind direction | speed MPH | gust MPH | rain 1hr in | rain 24hr in | rain mn in | humidity % | barometer mb |
| 20260504081818 | 39 | 169 | 0.0 | 0.0 | 0.00 | 0.00 | 0.00 | 90 | 1017.3 |
| 20260504081315 | 39 | 169 | 0.0 | 0.0 | 0.00 | 0.00 | 0.00 | 90 | 1017.4 |
| 20260504080810 | 39 | 169 | 0.0 | 0.0 | 0.00 | 0.00 | 0.00 | 90 | 1017.4 |
| 20260504080308 | 39 | 168 | 0.0 | 0.0 | 0.00 | 0.00 | 0.00 | 89 | 1017.6 |
| 20260504070228 | 41 | 169 | 0.0 | 0.0 | 0.00 | 0.00 | 0.00 | 86 | 1017.7 |
| 20260504060149 | 40 | 168 | 0.0 | 0.0 | 0.00 | 0.00 | 0.00 | 85 | 1018.4 |
| 20260504050617 | 42 | 168 | 0.0 | 0.0 | 0.00 | 0.00 | 0.00 | 81 | 1018.5 |
| 20260504050114 | 42 | 168 | 0.0 | 0.0 | 0.00 | 0.00 | 0.00 | 81 | 1018.4 |
| 20260504045611 | 42 | 168 | 0.0 | 0.0 | 0.00 | 0.00 | 0.00 | 81 | 1018.1 |
| 20260504045106 | 42 | 168 | 0.0 | 0.0 | 0.00 | 0.00 | 0.00 | 80 | 1018.3 |
| 20260504044604 | 43 | 168 | 0.0 | 0.0 | 0.00 | 0.00 | 0.00 | 81 | 1018.1 |
| 20260504044100 | 43 | 168 | 0.0 | 0.0 | 0.00 | 0.00 | 0.00 | 81 | 1018.2 |
| 20260504043558 | 43 | 168 | 0.0 | 0.0 | 0.00 | 0.00 | 0.00 | 81 | 1018.0 |
| 20260504043055 | 43 | 168 | 0.0 | 0.0 | 0.00 | 0.00 | 0.00 | 81 | 1018.1 |
| 20260504042552 | 43 | 168 | 0.0 | 0.0 | 0.00 | 0.00 | 0.00 | 80 | 1018.0 |
| 20260504042049 | 43 | 168 | 0.0 | 0.0 | 0.00 | 0.00 | 0.00 | 81 | 1018.1 |
| 20260504041544 | 43 | 168 | 0.0 | 0.0 | 0.00 | 0.00 | 0.00 | 78 | 1018.1 |
| 20260504041041 | 42 | 168 | 0.0 | 0.0 | 0.00 | 0.00 | 0.00 | 79 | 1018.3 |
| 20260504040538 | 42 | 168 | 0.0 | 0.0 | 0.00 | 0.00 | 0.00 | 79 | 1018.3 |
| 20260504040035 | 42 | 168 | 0.0 | 0.0 | 0.00 | 0.00 | 0.00 | 79 | 1018.3 |
| 20260504035532 | 42 | 168 | 0.0 | 0.0 | 0.00 | 0.00 | 0.00 | 78 | 1018.2 |
| 20260504035028 | 43 | 168 | 0.0 | 0.0 | 0.00 | 0.00 | 0.00 | 78 | 1018.1 |
| 20260504034526 | 43 | 168 | 0.0 | 0.0 | 0.00 | 0.00 | 0.00 | 77 | 1018.3 |
| 20260504034023 | 43 | 168 | 0.0 | 0.0 | 0.00 | 0.00 | 0.00 | 77 | 1018.2 |
| 20260504033521 | 43 | 168 | 0.0 | 0.0 | 0.00 | 0.00 | 0.00 | 77 | 1018.2 |
| 20260504033018 | 43 | 168 | 0.0 | 0.0 | 0.00 | 0.00 | 0.00 | 77 | 1018.2 |
| 20260504032515 | 43 | 168 | 0.0 | 0.0 | 0.00 | 0.00 | 0.00 | 76 | 1018.2 |
| 20260504032011 | 43 | 168 | 0.0 | 0.0 | 0.00 | 0.00 | 0.00 | 76 | 1017.9 |
| 20260504031508 | 43 | 168 | 0.0 | 0.0 | 0.00 | 0.00 | 0.00 | 77 | 1018.1 |
| 20260504031005 | 43 | 168 | 0.0 | 0.0 | 0.00 | 0.00 | 0.00 | 78 | 1018.0 |
| 20260504030502 | 43 | 168 | 0.0 | 0.0 | 0.00 | 0.00 | 0.00 | 77 | 1017.7 |
| 20260504025958 | 43 | 168 | 0.0 | 0.0 | 0.00 | 0.00 | 0.00 | 78 | 1017.6 |
| 20260504025455 | 43 | 168 | 0.0 | 0.0 | 0.00 | 0.00 | 0.00 | 78 | 1017.7 |
| 20260504024952 | 43 | 168 | 0.0 | 0.0 | 0.00 | 0.00 | 0.00 | 79 | 1017.7 |
| 20260504024449 | 43 | 168 | 0.0 | 0.0 | 0.00 | 0.00 | 0.00 | 77 | 1018.1 |
| 20260504023946 | 43 | 168 | 0.0 | 0.0 | 0.00 | 0.00 | 0.00 | 76 | 1017.7 |
| 20260504023442 | 43 | 168 | 0.0 | 0.0 | 0.00 | 0.00 | 0.00 | 74 | 1018.0 |
| 20260504022938 | 43 | 168 | 0.0 | 0.0 | 0.00 | 0.00 | 0.00 | 74 | 1018.1 |
| 20260504022434 | 42 | 168 | 0.0 | 0.0 | 0.00 | 0.00 | 0.00 | 76 | 1018.1 |
| 20260504021931 | 43 | 168 | 0.0 | 0.0 | 0.00 | 0.00 | 0.00 | 77 | 1018.0 |
| 20260504021429 | 42 | 168 | 0.0 | 0.0 | 0.00 | 0.00 | 0.00 | 77 | 1018.0 |
| 20260504020926 | 42 | 168 | 0.0 | 0.0 | 0.00 | 0.00 | 0.00 | 76 | 1018.1 |
| 20260504020422 | 42 | 168 | 0.0 | 0.0 | 0.00 | 0.00 | 0.00 | 76 | 1017.9 |
| 20260504015919 | 42 | 168 | 0.0 | 0.0 | 0.00 | 0.00 | 0.00 | 75 | 1017.9 |
| 20260504015415 | 42 | 168 | 0.0 | 0.0 | 0.00 | 0.00 | 0.00 | 75 | 1017.7 |
| 20260504014911 | 42 | 168 | 0.0 | 0.0 | 0.00 | 0.00 | 0.00 | 74 | 1017.6 |
| 20260504014407 | 43 | 168 | 0.0 | 0.0 | 0.00 | 0.00 | 0.00 | 73 | 1017.7 |
| 20260504013904 | 43 | 168 | 0.0 | 0.0 | 0.00 | 0.00 | 0.00 | 73 | 1017.9 |
| 20260504013402 | 43 | 168 | 0.0 | 0.0 | 0.00 | 0.00 | 0.00 | 71 | 1017.7 |
| 20260504012858 | 43 | 168 | 0.0 | 0.0 | 0.00 | 0.00 | 0.00 | 70 | 1017.9 |
| 20260504012356 | 44 | 168 | 0.0 | 0.0 | 0.00 | 0.00 | 0.00 | 68 | 1017.6 |
| 20260504011854 | 45 | 168 | 0.0 | 0.0 | 0.00 | 0.00 | 0.00 | 68 | 1017.5 |
| 20260504011350 | 45 | 168 | 0.0 | 0.0 | 0.00 | 0.00 | 0.00 | 67 | 1017.6 |
| 20260504010846 | 45 | 168 | 0.0 | 0.0 | 0.00 | 0.00 | 0.00 | 69 | 1017.5 |
| 20260504010342 | 45 | 168 | 0.0 | 0.0 | 0.00 | 0.00 | 0.00 | 64 | 1017.7 |
| 20260504005839 | 46 | 168 | 0.0 | 0.0 | 0.00 | 0.00 | 0.00 | 65 | 1017.3 |
| 20260504005335 | 47 | 168 | 0.0 | 0.0 | 0.00 | 0.00 | 0.00 | 66 | 1017.4 |
| 20260504004833 | 47 | 168 | 0.0 | 0.0 | 0.00 | 0.00 | 0.00 | 64 | 1017.3 |
| 20260504004331 | 48 | 168 | 0.0 | 0.0 | 0.00 | 0.00 | 0.00 | 57 | 1017.2 |
| 20260504003827 | 48 | 168 | 0.0 | 0.0 | 0.00 | 0.00 | 0.00 | 59 | 1017.1 |
| 20260504003324 | 49 | 168 | 0.0 | 0.0 | 0.00 | 0.00 | 0.00 | 57 | 1017.2 |
| 20260504002821 | 50 | 168 | 0.0 | 0.0 | 0.00 | 0.00 | 0.00 | 51 | 1017.2 |
| 20260504002317 | 51 | 168 | 0.0 | 0.0 | 0.00 | 0.00 | 0.00 | 48 | 1017.1 |
| 20260504001815 | 52 | 168 | 0.0 | 0.0 | 0.00 | 0.00 | 0.00 | 51 | 1017.2 |
| 20260504001312 | 53 | 168 | 0.0 | 0.0 | 0.00 | 0.00 | 0.00 | 48 | 1017.1 |
| 20260504000809 | 54 | 168 | 0.0 | 0.0 | 0.00 | 0.00 | 0.00 | 41 | 1017.1 |
| 20260504000306 | 55 | 302 | 0.0 | 0.0 | 0.00 | 0.00 | 0.00 | 37 | 1017.1 |
| 20260503235804 | 56 | 309 | 1.0 | 2.0 | 0.00 | 0.00 | 0.00 | 39 | 1017.3 |
| 20260503235304 | 56 | 206 | 1.0 | 1.0 | 0.00 | 0.00 | 0.00 | 38 | 1017.0 |
| 20260503234759 | 57 | 272 | 0.0 | 3.0 | 0.00 | 0.00 | 0.00 | 37 | 1017.2 |
| 20260503234256 | 56 | 282 | 0.0 | 3.0 | 0.00 | 0.00 | 0.00 | 39 | 1017.2 |
| 20260503233753 | 57 | 314 | 4.0 | 6.0 | 0.00 | 0.00 | 0.00 | 36 | 1017.2 |
| 20260503233249 | 57 | 303 | 2.0 | 4.0 | 0.00 | 0.00 | 0.00 | 35 | 1017.3 |
| 20260503232746 | 57 | 347 | 5.0 | 7.0 | 0.00 | 0.00 | 0.00 | 34 | 1017.1 |
| 20260503232243 | 57 | 321 | 2.0 | 4.0 | 0.00 | 0.00 | 0.00 | 38 | 1017.3 |
| 20260503231741 | 57 | 302 | 4.0 | 6.0 | 0.00 | 0.00 | 0.00 | 34 | 1017.3 |
| 20260503231238 | 57 | 307 | 5.0 | 7.0 | 0.00 | 0.00 | 0.00 | 38 | 1017.6 |
| 20260503230734 | 58 | 303 | 6.0 | 7.0 | 0.00 | 0.00 | 0.00 | 34 | 1017.5 |
| 20260503230232 | 57 | 247 | 2.0 | 7.0 | 0.00 | 0.00 | 0.00 | 36 | 1017.4 |
| 20260503225729 | 58 | 256 | 2.0 | 8.0 | 0.00 | 0.00 | 0.00 | 35 | 1017.4 |
| 20260503225229 | 58 | 267 | 3.0 | 7.0 | 0.00 | 0.00 | 0.00 | 36 | 1017.5 |
| 20260503224726 | 58 | 276 | 2.0 | 8.0 | 0.00 | 0.00 | 0.00 | 37 | 1017.7 |
| 20260503224224 | 58 | 256 | 3.0 | 7.0 | 0.00 | 0.00 | 0.00 | 34 | 1017.6 |
| 20260503223721 | 59 | 194 | 4.0 | 7.0 | 0.00 | 0.00 | 0.00 | 35 | 1017.9 |
| 20260503223219 | 58 | 292 | 7.0 | 7.0 | 0.00 | 0.00 | 0.00 | 35 | 1017.9 |
| 20260503222715 | 58 | 276 | 4.0 | 7.0 | 0.00 | 0.00 | 0.00 | 37 | 1017.7 |
| 20260503222213 | 58 | 255 | 6.0 | 7.0 | 0.00 | 0.00 | 0.00 | 37 | 1017.6 |
| 20260503221711 | 58 | 277 | 5.0 | 8.0 | 0.00 | 0.00 | 0.00 | 36 | 1017.9 |
| 20260503221208 | 59 | 270 | 2.0 | 6.0 | 0.00 | 0.00 | 0.00 | 34 | 1017.5 |
| 20260503220705 | 59 | 276 | 4.0 | 6.0 | 0.00 | 0.00 | 0.00 | 36 | 1017.5 |
| 20260503220201 | 58 | 246 | 6.0 | 7.0 | 0.00 | 0.00 | 0.00 | 35 | 1017.5 |
| 20260503215658 | 59 | 261 | 4.0 | 10.0 | 0.00 | 0.00 | 0.00 | 36 | 1017.5 |
| 20260503215155 | 59 | 235 | 4.0 | 7.0 | 0.00 | 0.00 | 0.00 | 39 | 1017.5 |
| 20260503214654 | 59 | 222 | 3.0 | 6.0 | 0.00 | 0.00 | 0.00 | 38 | 1017.4 |
| 20260503214149 | 59 | 209 | 1.0 | 7.0 | 0.00 | 0.00 | 0.00 | 37 | 1017.3 |
| 20260503213643 | 59 | 200 | 4.0 | 10.0 | 0.00 | 0.00 | 0.00 | 35 | 1017.5 |
| 20260503213139 | 58 | 300 | 2.0 | 7.0 | 0.00 | 0.00 | 0.00 | 35 | 1017.6 |
| 20260503212637 | 58 | 336 | 9.0 | 10.0 | 0.00 | 0.00 | 0.00 | 34 | 1017.9 |
| 20260503212134 | 60 | 251 | 2.0 | 3.0 | 0.00 | 0.00 | 0.00 | 36 | 1017.7 |
| 20260503211632 | 59 | 254 | 4.0 | 7.0 | 0.00 | 0.00 | 0.00 | 35 | 1017.4 |
| 20260503211127 | 60 | 207 | 7.0 | 8.0 | 0.00 | 0.00 | 0.00 | 32 | 1017.6 |
| 20260503210623 | 59 | 247 | 2.0 | 7.0 | 0.00 | 0.00 | 0.00 | 31 | 1017.7 |
| 20260503210120 | 59 | 323 | 3.0 | 4.0 | 0.00 | 0.00 | 0.00 | 35 | 1017.7 |
| 20260503205616 | 58 | 297 | 3.0 | 8.0 | 0.00 | 0.00 | 0.00 | 33 | 1018.0 |
| 20260503205112 | 58 | 305 | 8.0 | 9.0 | 0.00 | 0.00 | 0.00 | 35 | 1017.9 |
| 20260503204609 | 59 | 290 | 5.0 | 8.0 | 0.00 | 0.00 | 0.00 | 31 | 1018.1 |
| 20260503204107 | 58 | 9 | 1.0 | 4.0 | 0.00 | 0.00 | 0.00 | 31 | 1018.0 |
| 20260503203604 | 59 | 125 | 0.0 | 7.0 | 0.00 | 0.00 | 0.00 | 37 | 1018.0 |
| 20260503203101 | 58 | 326 | 1.0 | 3.0 | 0.00 | 0.00 | 0.00 | 39 | 1018.2 |
| 20260503202558 | 58 | 128 | 2.0 | 3.0 | 0.00 | 0.00 | 0.00 | 33 | 1018.2 |
| 20260503202056 | 58 | 285 | 3.0 | 7.0 | 0.00 | 0.00 | 0.00 | 35 | 1018.1 |
| 20260503201554 | 58 | 323 | 7.0 | 10.0 | 0.00 | 0.00 | 0.00 | 34 | 1018.3 |
| 20260503201051 | 58 | 330 | 2.0 | 3.0 | 0.00 | 0.00 | 0.00 | 39 | 1018.4 |
| 20260503200547 | 59 | 322 | 4.0 | 7.0 | 0.00 | 0.00 | 0.00 | 41 | 1018.4 |
| 20260503200044 | 58 | 326 | 2.0 | 2.0 | 0.00 | 0.00 | 0.00 | 39 | 1018.6 |
| 20260503195541 | 57 | 322 | 3.0 | 8.0 | 0.00 | 0.00 | 0.00 | 40 | 1018.7 |
| 20260503195038 | 58 | 51 | 2.0 | 3.0 | 0.00 | 0.00 | 0.00 | 32 | 1018.7 |
| 20260503194535 | 58 | 257 | 6.0 | 10.0 | 0.00 | 0.00 | 0.00 | 34 | 1019.0 |
| 20260503194035 | 56 | 17 | 3.0 | 3.0 | 0.00 | 0.00 | 0.00 | 42 | 1018.9 |
| 20260503193532 | 58 | 299 | 4.0 | 6.0 | 0.00 | 0.00 | 0.00 | 35 | 1019.2 |
| 20260503193027 | 57 | 285 | 3.0 | 4.0 | 0.00 | 0.00 | 0.00 | 39 | 1019.3 |
| 20260503192523 | 57 | 307 | 6.0 | 6.0 | 0.00 | 0.00 | 0.00 | 42 | 1019.1 |
| 20260503192020 | 56 | 40 | 1.0 | 3.0 | 0.00 | 0.00 | 0.00 | 38 | 1018.9 |
| 20260503191516 | 56 | 296 | 4.0 | 9.0 | 0.00 | 0.00 | 0.00 | 40 | 1019.4 |
| 20260503191013 | 57 | 305 | 11.0 | 13.0 | 0.00 | 0.00 | 0.00 | 41 | 1019.2 |
| 20260503190510 | 57 | 82 | 3.0 | 4.0 | 0.00 | 0.00 | 0.00 | 35 | 1019.5 |
| 20260503190008 | 57 | 94 | 2.0 | 3.0 | 0.00 | 0.00 | 0.00 | 36 | 1019.5 |
| 20260503185504 | 57 | 290 | 0.0 | 6.0 | 0.00 | 0.00 | 0.00 | 40 | 1019.7 |
| 20260503185003 | 56 | 70 | 1.0 | 2.0 | 0.00 | 0.00 | 0.00 | 35 | 1019.5 |
| 20260503184500 | 56 | 327 | 3.0 | 11.0 | 0.00 | 0.00 | 0.00 | 39 | 1019.8 |
| 20260503183956 | 57 | 4 | 2.0 | 3.0 | 0.00 | 0.00 | 0.00 | 39 | 1019.9 |
| 20260503183453 | 57 | 38 | 3.0 | 4.0 | 0.00 | 0.00 | 0.00 | 44 | 1019.9 |
| 20260503182950 | 57 | 33 | 1.0 | 1.0 | 0.00 | 0.00 | 0.00 | 41 | 1019.9 |
| 20260503182449 | 57 | 94 | 2.0 | 3.0 | 0.00 | 0.00 | 0.00 | 38 | 1019.9 |
| 20260503181946 | 57 | 92 | 4.0 | 6.0 | 0.00 | 0.00 | 0.00 | 35 | 1020.3 |
| 20260503181443 | 57 | 35 | 2.0 | 6.0 | 0.00 | 0.00 | 0.00 | 39 | 1020.0 |
| 20260503180939 | 56 | 101 | 2.0 | 3.0 | 0.00 | 0.00 | 0.00 | 35 | 1020.1 |
| 20260503180437 | 53 | 323 | 7.0 | 7.0 | 0.00 | 0.00 | 0.00 | 47 | 1020.2 |
| 20260503175934 | 54 | 202 | 2.0 | 3.0 | 0.00 | 0.00 | 0.00 | 42 | 1020.2 |
| 20260503175432 | 54 | 298 | 6.0 | 7.0 | 0.00 | 0.00 | 0.00 | 39 | 1020.3 |
| 20260503174927 | 54 | 310 | 3.0 | 7.0 | 0.00 | 0.00 | 0.00 | 43 | 1020.4 |
| 20260503174426 | 53 | 258 | 5.0 | 7.0 | 0.00 | 0.00 | 0.00 | 38 | 1020.5 |
| 20260503173926 | 53 | 300 | 4.0 | 7.0 | 0.00 | 0.00 | 0.00 | 42 | 1020.6 |
| 20260503173422 | 54 | 277 | 4.0 | 7.0 | 0.00 | 0.00 | 0.00 | 44 | 1020.5 |
| 20260503172919 | 53 | 245 | 1.0 | 10.0 | 0.00 | 0.00 | 0.00 | 39 | 1020.6 |
| 20260503172417 | 54 | 81 | 2.0 | 3.0 | 0.00 | 0.00 | 0.00 | 35 | 1020.8 |
| 20260503171912 | 54 | 313 | 2.0 | 3.0 | 0.00 | 0.00 | 0.00 | 37 | 1020.9 |
| 20260503171410 | 53 | 334 | 1.0 | 2.0 | 0.00 | 0.00 | 0.00 | 39 | 1020.9 |
| 20260503170907 | 52 | 308 | 2.0 | 3.0 | 0.00 | 0.00 | 0.00 | 43 | 1021.1 |
| 20260503170403 | 51 | 313 | 7.0 | 10.0 | 0.00 | 0.00 | 0.00 | 41 | 1021.2 |
| 20260503150755 | 47 | 301 | 4.0 | 8.0 | 0.00 | 0.00 | 0.00 | 48 | 1022.0 |
| 20260503150251 | 46 | 298 | 7.0 | 10.0 | 0.00 | 0.00 | 0.00 | 46 | 1021.8 |
| 20260503140216 | 43 | 310 | 1.0 | 13.0 | 0.00 | 0.00 | 0.00 | 49 | 1022.2 |
| 20260503131145 | 38 | 276 | 2.0 | 4.0 | 0.00 | 0.00 | 0.00 | 78 | 1021.9 |
| 20260503130643 | 37 | 117 | 1.0 | 2.0 | 0.00 | 0.00 | 0.00 | 82 | 1021.9 |
| 20260503130140 | 36 | 198 | 0.0 | 1.0 | 0.00 | 0.00 | 0.00 | 84 | 1022.0 |
| 20260503120106 | 29 | 225 | 0.0 | 0.0 | 0.00 | 0.00 | 0.00 | 98 | 1021.2 |
| 20260503110533 | 26 | 225 | 0.0 | 0.0 | 0.00 | 0.00 | 0.00 | 98 | 1020.6 |
| 20260503090408 | 28 | 254 | 0.0 | 0.0 | 0.00 | 0.00 | 0.00 | 96 | 1019.7 |